188  
ASUS43 KIWX 201410  
RWRIWX  
 
KIWX WEATHER ROUNDUP  
NATIONAL WEATHER SERVICE NORTHERN INDIANA  
1000 AM EDT WED SEP 20 2017  
 
NOTE: "FAIR" INDICATES FEW OR NO CLOUDS BELOW 12,000 FEET WITH NO  
SIGNIFICANT WEATHER AND/OR S TO VISIBILITY
.  
 
* THESE STATIONS ARE NOT UNDER NWS QUALITY CONTROL. THEY ALSO MAY NOT  
REPORT WEATHER SUCH AS PRECIPITATION OR FOG.
 
 
INZ001>027-201500-  
NORTHERN INDIANA  
 
CITY SKY/WX TMP DP RH WIND PRES REMARKS
 
GARY* SUNNY 72 68 88 SE9 29.94F  
VALPARAISO MOSUNNY 70 68 93 SE6 29.97S FOG  
MICHIGAN CITY* SUNNY 68 68 100 SE5 29.97S  
LAPORTE* PTSUNNY 67 66 99 SE3 29.99S FOG  
KNOX* PTSUNNY 68 66 94 SE6 29.98R  
SOUTH BEND PTSUNNY 67 67 100 SE8 29.99S FOG  
ELKHART* CLOUDY 66 66 100 SE5 30.00S FOG  
GOSHEN FOG 66 64 93 SE7 30.00S VSB 1/4  
MONTICELLO* SUNNY 70 68 95 S5 29.98R  
LOGANSPORT* SUNNY 70 70 100 S6 30.01R  
ROCHESTER* PTSUNNY 73 72 94 SE5 30.00S FOG  
WARSAW* FOG 64 64 100 CALM 30.01S VSB 1/2  
AUBURN* FOG 64 63 94 CALM 30.03S VSB 1/4  
FORT WAYNE MOSUNNY 70 68 93 S3 30.02S  
HUNTINGTON* SUNNY 71 69 96 CALM 30.01S  
PERU/GRISSOM SUNNY 72 72 100 S7 29.99S  
 

 
INZ028>050-201500-  
CENTRAL INDIANA  
 
CITY SKY/WX TMP DP RH WIND PRES REMARKS
 
LAFAYETTE SUNNY 72 70 93 VRB3 29.97S  
KOKOMO* MOSUNNY 70 69 97 S8 30.02R FOG  
MUNCIE* SUNNY 75 68 78 S6 30.03R  
INDIANAPOLIS FOG 69 68 96 SE7 30.01R VSB 1/8  
 

 
MIZ043>046-050>051-056>058-064>065-071>073-077>080-201500-  
SOUTHWEST LOWER MICHIGAN  
 
CITY SKY/WX TMP DP RH WIND PRES REMARKS
 
BATTLE CREEK MOSUNNY 72 66 81 SW5 30.01S  
BENTON HARBOR CLOUDY 67 65 93 SE8 29.97F FOG  
COLDWATER* CLOUDY 68 68 100 S3 30.01S FOG  
HILLSDALE* CLOUDY 68 64 88 S3 30.01F  
HOLLAND PTSUNNY 70 64 81 SE7 29.98S  
GRAND RAPIDS PTSUNNY 70 65 84 SE5 29.99S  
KALAMAZOO CLOUDY 68 63 84 S7 30.01R HAZE  
STURGIS* FOG 66 66 100 SE5 30.01R VSB 1/2  
THREE RIVERS* CLOUDY 67 67 97 CALM 30.02R FOG  
 

 
OHZ001>008-015>018-024>025-201500-  
NORTHWEST OHIO  
 
CITY SKY/WX TMP DP RH WIND PRES REMARKS
 
WAUSEON* FOG 66 66 100 CALM 30.02S VSB 1  
DEFIANCE FOG 66 65 96 S3 30.02S VSB 1/4  
FINDLAY SUNNY 73 67 81 VRB3 30.02S  
TOLEDO EXPRESS FOG 66 32 28 CALM 30.02S VSB 1/2  
TOLEDO METCALF SUNNY 70 67 90 CALM 30.03R FOG  
LIMA SUNNY 71 69 93 S5 30.04R  
 

 
AND FOR LAKE MICHIGAN COASTAL AND OPEN LAKE BUOY OBSERVATIONS  
 
STATION/POSITION TEMP WIND PRES VSBY WAVE
 
AIR SEA DIR/SP/G HT/PER  
(F) (DEG/KT/KT) (MB) (MI) (FT/S)  
CALUMET HARBOR 72 140/ 6/ 8 1012.8F  
MICHIGAN CITY 69 130/ 11/ 13 N/A  
BURNS HARBOR 71 160/ 6/ 15 1014.6S  
SAINT JOSEPH 66 70/ 2/ 5 1015.6  
SOUTH LAKE BUOY 66 68 100/ 14/ 16 1013.7F 1/ 3  
4 MI NW BRIDGMAN 67 69 160/ 10/ 12 1014.4 1  
MICHIGAN CITY 69 69 160/ 10/ 12 N/A 1  
 

 

 
 
 
CLICK HERE TO GO TO PREVIOUS BULLETINS.

The Nexlab IN Page
The Nexlab OH Page
The Nexlab MI Page Main Text Page